Flag for Norway Weather past 2 weeks in Stavanger, Norway

Now
41 °F

Broken clouds.


Feels Like: 31 °F
Forecast: 42 / 46 °F
Wind: 25 mph from West

Location: Stavanger / Sola

Current Time: Dec 19, 2014 at 3:46:23 PM

Latest Report: Dec 19, 2014 at 2:50 PM


Visibility: N/A

Pressure: 29.18 "Hg

Humidity: 81%

Dew point: 36 °F

Location of StavangerLocation

Historic Weather in Stavanger — Graph

°F

Stavanger temperature yesterday

Maximum temperature yesterday: 48 °F (at 8:20 AM)
Minimum temperature yesterday: 39 °F (at 4:50 AM)
Average temperature yesterday: 46 °F

Past Weeks' High & Low Weather Summary

 TemperatureHumidityPressure
High50 °F (Dec 7, 2:50 AM)100% (Dec 5, 8:20 PM)30.12 "Hg (Dec 5, 8:20 PM)
Low32 °F (Dec 6, 9:20 AM)52% (Dec 15, 6:20 PM)28.97 "Hg (Dec 11, 2:20 PM)
Average42 °F81%29.44 "Hg
* Reported Dec 4 2:20 PM — Dec 19 2:50 PM, Stavanger, Weather by CustomWeather, © 2014

Note: Actual official high and low records may vary slightly from our data, if they occured in-between our weather recording intervals... More about our weather records

Advertising

Stavanger weather history for previous 24 hours

 ConditionsComfort  
Time TempWeatherWind HumidityBarometerVisibility
2:50 PM
Dec 19
41 °FBroken clouds.25 mph81%29.18 "HgN/A
2:20 PM43 °FScattered showers. Broken clouds.21 mph76%29.18 "HgN/A
1:50 PM41 °FScattered showers. Scattered clouds.23 mph81%29.18 "HgN/A
1:20 PM43 °FScattered showers. Broken clouds.23 mph76%29.18 "HgN/A
12:50 PM41 °FBroken clouds.18 mph76%29.18 "HgN/A
12:20 PM43 °FBroken clouds.21 mph76%29.18 "HgN/A
11:50 AM39 °FScattered showers. Partly sunny.25 mph87%29.18 "HgN/A
11:20 AM41 °FScattered showers. Broken clouds.12 mph76%29.18 "HgN/A
10:50 AM39 °FSprinkles. Broken clouds.24 mph87%29.18 "HgN/A
10:20 AM43 °FSprinkles. Broken clouds.22 mph71%29.18 "HgN/A
9:50 AM45 °FBroken clouds.18 mph66%29.18 "HgN/A
9:20 AM41 °FScattered showers. Partly cloudy.16 mph70%29.18 "HgN/A
8:50 AM41 °FRain showers. Partly cloudy.9 mph81%29.18 "HgN/A
8:20 AM39 °FPartly cloudy.23 mph87%29.21 "HgN/A
7:50 AM46 °FPassing clouds.25 mph62%29.18 "HgN/A
7:20 AM45 °FPassing clouds.22 mph66%29.18 "HgN/A
6:50 AM46 °FPartly cloudy.20 mph57%29.21 "HgN/A
6:20 AM45 °FRain. Passing clouds.21 mph71%29.21 "HgN/A
5:50 AM45 °FPassing clouds.18 mph66%29.21 "HgN/A
4:50 AM45 °FPartly cloudy.16 mph76%29.21 "HgN/A
3:50 AM43 °FRain. Partly cloudy.17 mph81%29.24 "HgN/A
2:50 AM45 °FPassing clouds.15 mph76%29.24 "HgN/A
1:50 AM43 °FPassing clouds.17 mph76%29.21 "HgN/A
12:50 AM46 °FPartly cloudy.13 mph71%29.24 "HgN/A
12:20 AM46 °FPassing clouds.16 mph76%29.21 "HgN/A
11:50 PM
Dec 18
46 °FPassing clouds.12 mph82%29.21 "HgN/A
11:20 PM46 °FPassing clouds.16 mph76%29.21 "HgN/A
10:50 PM46 °FPartly cloudy.14 mph82%29.21 "HgN/A
10:20 PM48 °FPartly cloudy.15 mph76%29.21 "HgN/A
9:50 PM48 °FPartly cloudy.15 mph82%29.21 "HgN/A
9:20 PM48 °FPartly cloudy.12 mph82%29.18 "HgN/A
8:50 PM43 °FPartly cloudy.6 mph100%29.18 "HgN/A
8:20 PM43 °FPartly cloudy.6 mph100%29.18 "HgN/A
7:50 PM43 °FPartly cloudy.6 mph100%29.18 "Hg4 mi
7:20 PM45 °FPartly cloudy.3 mph93%29.18 "Hg4 mi
6:50 PM45 °FPassing clouds.6 mph93%29.18 "Hg6 mi
6:20 PM45 °FPassing clouds.3 mph93%29.18 "HgN/A
5:50 PM45 °FPassing clouds.3 mph93%29.18 "HgN/A
5:20 PM46 °FPassing clouds.6 mph87%29.21 "HgN/A
4:50 PM46 °FPartly cloudy.7 mph87%29.21 "Hg6 mi
4:20 PM46 °FPassing clouds.8 mph87%29.21 "Hg5 mi
3:50 PM46 °FPartly cloudy.8 mph87%29.21 "HgN/A
3:20 PM46 °FDrizzle. Partly sunny.12 mph87%29.21 "HgN/A
Weather by CustomWeather, © 2014

See weather overviewHow to use our weather pages